Flag for U.S.A. Weather past 2 weeks in Pueblo, Colorado, U.S.A.

Now
65 °F

Sunny.


Feels Like: 65 °F
Forecast: 61 / 91 °F
Wind: No wind

Location: Pueblo Memorial Airport

Current Time: Sep 1, 2015 at 8:37:38 AM

Latest Report: Sep 1, 2015 at 7:53 AM


Visibility: 10 mi

Pressure: 29.93 "Hg (25.31 "Hg at 1430m altitude)

Humidity: 68%

Dew point: 54 °F

Location of PuebloLocation

Historic Weather in Pueblo — Graph

°F

Pueblo temperature yesterday

Maximum temperature yesterday: 93 °F (at 12:53 PM)
Minimum temperature yesterday: 62 °F (at 4:53 AM)
Average temperature yesterday: 76 °F

Past Weeks' High & Low Weather Summary

 TemperatureHumidityPressure
High99 °F (Aug 22, 1:53 PM)87% (Aug 18, 4:53 AM)30.19 "Hg (Aug 18, 4:53 AM)
Low51 °F (Aug 24, 5:53 AM)9% (Aug 21, 2:53 PM)29.62 "Hg (Aug 21, 4:53 PM)
Average74 °F42%29.90 "Hg
* Reported Aug 17 6:53 AM — Sep 1 6:53 AM, Pueblo, Weather by CustomWeather, © 2015

Note: Actual official high and low records may vary slightly from our data, if they occured in-between our weather recording intervals... More about our weather records

Advertising

Pueblo weather history for previous 24 hours

 ConditionsComfort  
Time TempWeatherWind HumidityBarometerVisibility
6:53 AM
Tue, Sep 1
59 °FClear.No wind78%29.93 "Hg10 mi
5:53 AM59 °FClear.No wind75%29.92 "Hg10 mi
4:53 AM59 °FClear.No wind75%29.91 "Hg10 mi
3:53 AM60 °FClear.7 mph75%29.90 "Hg10 mi
2:53 AM60 °FClear.6 mph75%29.90 "Hg10 mi
1:53 AM64 °FClear.No wind70%29.90 "Hg10 mi
12:53 AM66 °FClear.6 mph65%29.88 "Hg10 mi
11:53 PM
Mon, Aug 31
69 °FClear.No wind57%29.89 "Hg10 mi
10:53 PM72 °FClear.3 mph49%29.89 "Hg10 mi
8:53 PM72 °FClear.13 mph57%29.85 "Hg10 mi
7:53 PM76 °FSunny.10 mph47%29.88 "Hg10 mi
6:53 PM78 °FPartly sunny.3 mph42%29.90 "Hg10 mi
5:53 PM78 °FPartly sunny.12 mph42%29.85 "Hg10 mi
4:53 PM82 °FPartly sunny.20 mph32%29.83 "Hg10 mi
3:53 PM91 °FSunny.12 mph20%29.77 "Hg10 mi
2:53 PM91 °FPassing clouds.7 mph20%29.78 "Hg10 mi
1:53 PM93 °FSunny.3 mph18%29.79 "Hg10 mi
12:53 PM93 °FSunny.7 mph20%29.81 "Hg10 mi
11:53 AM89 °FSunny.5 mph22%29.83 "Hg10 mi
10:53 AM83 °FSunny.6 mph32%29.85 "Hg10 mi
9:53 AM82 °FSunny.10 mph34%29.84 "Hg10 mi
8:53 AM79 °FSunny.6 mph36%29.84 "Hg10 mi
Weather by CustomWeather, © 2015

See weather overviewHow to use our weather pages